星链-34764 (STARLINK-34764)

导读

STARLINK-34764是美国太空探索技术公司SpaceX星链星座的一员,于2025年8月4日由美国发射升空,属于星链互联网卫星星座的扩容卫星。星链项目旨在构建全球卫星互联网,为全球各地提供高速低延迟的宽带接入服务,该卫星入轨后将和其他星链卫星协同,进一步完善星座覆盖能力。

基本信息
目录编号:
65098
目录名称:
STARLINK-34764
国际标识:
2025-167W
轨道中心:
EARTH
卫星名称:
星链-34764
卫星全名:
星链-34764 (STARLINK-34764)
卫星状态:
在轨 (已飞行313 天)
发射日期:
2025-08-04 UTC
国别 :
美国 (US)
星等 :
--
轨道信息
数据来源 国际轨道数据 AOE轨道数据
星历时间 2026-06-13T00:31:45+0800
1天前
查看轨道信息
2026-06-09T07:00:00+0800
4天前
查看轨道信息
半长轴 6840.82km 6840.831km
偏心率 0.0001109 0.0002294
轨道倾角 53.159° 53.157°
近地点辐角 111.824° 56.390°
升交点赤经 304.051° 321.495°
平近点角 248.288° 206.271°
近地点 461.924km 461.124km
远地点 463.442km 464.264km
周期 93.847分钟 93.848分钟
每日圈数 15.344069 15.344034
详细信息
固有亮度:
5
最大亮度:
2.5
卫星平台:
Starlink V1.0
覆盖范围:
全球
运营商:
太空探索技术公司
运营商所在国:
美国
制造商(研发单位):
太空探索技术公司
制造商所在国:
美国
使用方式:
暂无
卫星简介
Starlink 计划是 SpaceX 推出的全球卫星互联网项目,通过发射低轨道卫星,为全球尤其是偏远地区提供高速、低延迟的互联网服务。自 2019 年起,Starlink 已部署数千颗卫星,旨在缩小全球数字鸿沟,推动互联网普及。该项目还为军事、航空等行业提供通信支持,带来广泛经济效益。
2D轨道图
3D轨道图
轨道高度分析图
轨道倾角分析图
轨道综合分析图
查看轨道综合分析图